Regional Weather Roundup
Issued by NWS Lake Charles, LA

Home | Current Version | Previous Version | Text Only | Print | Product List | Glossary On
Versions: 1 2 3 4 5 6 7 8 9 10 11 12 13 14 15 16 17 18 19 20 21 22 23 24 25 26 27 28 29 30 31 32 33 34 35 36 37 38 39 40 41 42 43 44 45 46 47 48 49 50
000
ASUS44 KLCH 290010
RWRLCH
RWRLCH
REGIONAL WEATHER ROUNDUP
NATIONAL WEATHER SERVICE LAKE CHARLES LA
600 PM CST FRI NOV 28 2014

Note: "fair" indicates few or no clouds below 12,000 feet with no
significant weather and/or obstructions to visibility.


ACROSS SOUTHEAST TEXAS

CITY           SKY/WX    TMP DP  RH WIND       PRES   REMARKS
BEAUMONT       CLOUDY    62  56  80 E9        30.21S
BEAUMONT CITY  CLOUDY    62  56  80 SE6       30.21S
ORANGE         CLOUDY    59  59 100 SE7       30.23F
JASPER         MOCLDY    60  53  76 S5        30.21S
$$

ACROSS CENTRAL LOUISIANA

CITY           SKY/WX    TMP DP  RH WIND       PRES   REMARKS
LEESVILLE      CLEAR     55  49  81 S8        30.20S
FULLERTON        N/A     56  47  71 VRB3      30.18F
ALEXANDRIA INT CLEAR     55  43  63 S7        30.20F
ESLER FIELD    CLEAR     54  41  61 S3        30.22S
DERIDDER         N/A     59  51  74 S6        30.22F
OAKDALE        CLEAR     49  47  90 CALM      30.23F
OPELOUSAS        N/A     55  48  75 S7        30.25R
$$

ACROSS SOUTHWEST AND SOUTH CENTRAL LOUISIANA

CITY           SKY/WX    TMP DP  RH WIND       PRES   REMARKS
SULPHUR        PTCLDY    58  55  88 SE5       30.24S
LAKE CHARLES   PTCLDY    55  53  93 SE6       30.23S
CHENNAULT INT  NOT AVBL
CAMERON PHI      N/A     59  55  88 SE15      30.25F
DEQUINCY         N/A     56  54  95 S3        30.22F
JENNINGS         N/A     55  51  85 SE6       30.24F
LAFAYETTE      CLEAR     56  49  77 S3        30.26S
NEW IBERIA     CLEAR     54  48  80 S6        30.27S
ABBEVILLE        N/A     53  49  87 SE5       30.26S
PATTERSON      CLEAR     55  45  67 SE7       30.30S
SALT POINT       N/A     59  49  69 SE7       30.27S
$$

SELECTED SITES ACROSS THE REGION

CITY           SKY/WX    TMP DP  RH WIND       PRES   REMARKS
HOUSTON BUSH   PTCLDY    65  55  70 S7        30.17S
HOUSTON HOBBY  PTCLDY    64  56  75 SE6       30.17F
GALVESTON      MOCLDY    64  60  87 SE8       30.20S
COLLEGE STAT   CLEAR     63  52  67 S8        30.12F
CONROE         PTCLDY    62  54  74 SE7       30.17S
HUNTSVILLE     CLEAR     64  54  69 SE6       30.14S
LUFKIN         MOCLDY    62  52  69 S7        30.15F
SHREVEPORT     PTCLDY    55  43  63 S9        30.13F
MONROE         CLEAR     54  37  52 S6        30.20S
NATCHEZ MS     CLEAR     48  28  46 SE8       30.24S
BATON ROUGE    CLEAR     50  35  56 E8        30.26F
N.O. INTL ARPT PTCLDY    53  41  63 SE7       30.30S
SLIDELL        CLEAR     46  40  79 SE3       30.30S
$$

MARINE REPORTS

STATION/POSITION TIME  TEMP    WIND        PRES    VSBY  WAVE
                       AIR SEA DIR/SP/G                  HT/PER
                 (UTC) (F)     (DEG/KT/KT) (MB)    (MI)  (FT/S)
BUOY 30 S HIGH I 0000   63 62  130/  6/  6 1022.3F         2/ 4
SEA RIM ST PARK  0000   61     120/  5/  6 1023.4F
PORT ARTHUR      0000      60  120/  4/  6 1023.1F
SABINE PASS N    0000   61 58  120/ 12/ 14 1022.8F
TEXAS POINT      NOT AVBL
CALCASIEU PASS   0000   58 57  140/ 13/ 18   N/A
LK CHARLES BEACH 0000   59                 1023.7R
MARSH ISLAND     NOT AVBL
FRESH WATER LOCK 0000   56 58  100/  8/ 12 1024.4S
AMERADA PASS     0000   56 55  130/  4/  7 1025.2F
$$



USA.gov is the U.S. government's official web portal to all federal, state and local government web resources and services.